Beaufort, NC

10:17 AM EDT on September 25, 2016 (GMT -0400)
Smith

Weather History for KMRH - June, 2014

Change the Weather History Date:

Monday, June 9, 2014

  Actual Average Record
Temperature  
Mean Temperature 77 °F -  
Max Temperature 82 °F 82 °F 90 °F (1952)
Min Temperature 73 °F 68 °F 55 °F (1967)
Cooling Degree Days 12    
Growing Degree Days 27 (Base 50)    
Moisture  
Dew Point 72 °F    
Average Humidity 82    
Maximum Humidity 94    
Minimum Humidity 74    
Precipitation  
Precipitation 0.00 in - - ()
Sea Level Pressure  
Sea Level Pressure 29.94 in    
Wind  
Wind Speed 8 mph (South)    
Max Wind Speed 15 mph    
Max Gust Speed 23 mph    
Visibility 10 miles    
Events      
Averages and records for this station are not official NWS values.
T = Trace of Precipitation, MM = Missing Value Source: NWS Daily Summary

Daily Weather History Graph

Daily Weather History Graph

Search for Another Location

Airport or City:

Trip Planner

Search our weather history database for the weather conditions in past years. The results will help you decide how hot, cold, wet, or windy it might be!

Date:

Astronomy

Jun. 09, 2014 Rise Set
Actual Time 5:52 AM EDT 8:19 PM EDT
Civil Twilight 5:23 AM EDT 8:48 PM EDT
Nautical Twilight 4:47 AM EDT 9:24 PM EDT
Astronomical Twilight 4:07 AM EDT 10:04 PM EDT
Moon 4:45 PM EDT (6/9) 3:10 AM EDT (6/9)
Length of Visible Light 15h 24m
Length of Day
14h 26m
Waxing Gibbous, 85% of the Moon is Illuminated
Jun 9
Waxing Gibbous
Jun 13
Full
Jun 19
Last Quarter
Jun 27
New
Jul 5
First Quarter

Hourly Weather History & Observations

Time (EDT) Temp. Heat Index Dew Point Humidity Pressure Visibility Wind Dir Wind Speed Gust Speed Precip Events Conditions
12:58 AM 73.0 °F - 68.0 °F 84% 29.95 in 10.0 mi South 4.6 mph - N/A   Clear
1:58 AM 73.9 °F - 66.9 °F 79% 29.95 in 10.0 mi SSW 6.9 mph - N/A   Clear
2:58 AM 73.9 °F - 68.0 °F 82% 29.94 in 10.0 mi South 5.8 mph - N/A   Mostly Cloudy
3:58 AM 73.9 °F - 68.0 °F 82% 29.93 in 10.0 mi SSW 6.9 mph - N/A   Mostly Cloudy
4:58 AM 75.0 °F - 68.0 °F 79% 29.92 in 10.0 mi SSW 6.9 mph - N/A   Mostly Cloudy
5:58 AM 75.0 °F - 69.1 °F 82% 29.92 in 10.0 mi South 6.9 mph - N/A   Clear
6:58 AM 75.9 °F - 70.0 °F 82% 29.93 in 10.0 mi South 5.8 mph - N/A   Scattered Clouds
7:58 AM 78.1 °F - 71.1 °F 79% 29.94 in 10.0 mi South 9.2 mph - N/A   Clear
8:58 AM 80.1 °F 83.8 °F 72.0 °F 76% 29.95 in 10.0 mi South 9.2 mph - N/A   Scattered Clouds
9:58 AM 79.0 °F - 72.0 °F 79% 29.96 in 10.0 mi South 11.5 mph - N/A   Mostly Cloudy
10:58 AM 81.0 °F 85.2 °F 72.0 °F 74% 29.96 in 10.0 mi South 15.0 mph - N/A   Mostly Cloudy
11:58 AM 81.0 °F 85.2 °F 72.0 °F 74% 29.96 in 10.0 mi South 12.7 mph 23.0 mph N/A   Partly Cloudy
12:58 PM 81.0 °F 85.8 °F 73.0 °F 77% 29.96 in 10.0 mi North - - N/A   Mostly Cloudy
1:58 PM 80.1 °F 83.8 °F 72.0 °F 76% 29.95 in 10.0 mi South 12.7 mph 23.0 mph N/A   Overcast
3:58 PM 79.0 °F - 72.0 °F 79% 29.93 in 9.0 mi South 15.0 mph - N/A   Overcast
5:58 PM 79.0 °F - 72.0 °F 79% 29.94 in 9.0 mi South 13.8 mph - N/A   Overcast
6:09 PM 79.0 °F - 72.0 °F 79% 29.94 in 10.0 mi South 10.4 mph 20.7 mph N/A   Overcast
6:58 PM 79.0 °F - 72.0 °F 79% 29.94 in 9.0 mi South 11.5 mph - N/A   Mostly Cloudy
7:35 PM 78.1 °F - 73.0 °F 84% 29.93 in 10.0 mi SSE 11.5 mph - N/A   Mostly Cloudy
7:58 PM 78.1 °F - 73.0 °F 84% 29.94 in 10.0 mi SSE 9.2 mph - N/A   Mostly Cloudy
8:23 PM 78.1 °F - 73.0 °F 84% 29.93 in 10.0 mi SSE 10.4 mph - N/A   Overcast
8:58 PM 78.1 °F - 73.0 °F 84% 29.94 in 10.0 mi SSE 10.4 mph - N/A   Overcast
9:58 PM 78.1 °F - 73.9 °F 87% 29.96 in 10.0 mi SSE 9.2 mph - N/A   Overcast
10:58 PM 78.1 °F - 73.9 °F 87% 29.96 in 10.0 mi South 10.4 mph - N/A   Mostly Cloudy
11:43 PM 77.0 °F - 75.0 °F 94% 29.95 in 10.0 mi South 9.2 mph - N/A   Partly Cloudy
11:58 PM 77.0 °F - 75.0 °F 94% 29.96 in 10.0 mi South 6.9 mph - N/A   Clear